Temp
-6 -7 -7 -6 -7 -6 -7 -5 -5 -6 -6 -6 -5 -5 -5 -5 -5 -5 -4 -4 -4 -4 -5 -5 -5 -5 -5 -5 -5 -4 -5 -5 -4 -4 -4 -4 -4 -4 -4 -4 -4 -4 -5 -5 -5 -5 -5 -3 -3 -4 -3 -4 -4 -4
-5 -6 -6 -6 -5 -5 -5 -4 -4 -5 -6 -5 -5 -5 -5 -5 -6 -4 -4 -5 -5 -5 -5 -5 -5 -5 -5 -5 -5 -4 -4 -4 -4 -4 -4 -4 -4 -4 -4 -4 -4 -4 -4 -4 -4 -4 -3 -4 -4 -4 -4 -4 -4 -4
-5 -6 -6 -5 -5 -5 -4 -3 -3 -5 -5 -5 -5 -5 -5 -5 -3 -4 -4 -5 -5 -5 -5 -6 -6 -5 -5 -5 -5 -5 -4 -4 -4 -4 -4 -4 -4 -4 -4 -4 -4 -4 -4 -4 -4 -4 -4 -4 -4 -4 -4 -5 -5 -5
-5 -5 -6 -5 -5 -5 -5 -4 -3 -5 -5 -5 -4 -4 -4 -3 -3 -4 -5 -5 -5 -6 -5 -6 -6 -5 -5 -5 -5 -5 -5 -5 -4 -4 -4 -4 -4 -4 -4 -4 -4 -4 -4 -4 -4 -4 -5 -4 -5 -5 -5 -5 -5 -6
-5 -5 -5 -5 -5 -5 -5 -4 -4 -4 -5 -5 -5 -5 -5 -4 -4 -4 -5 -5 -6 -6 -6 -5 -5 -5 -5 -5 -5 -5 -5 -5 -5 -5 -4 -4 -4 -4 -4 -4 -4 -4 -4 -5 -5 -5 -5 -5 -5 -5 -6 -6 -6 -6
-4 -5 -5 -5 -5 -5 -5 -4 -4 -5 -5 -5 -5 -5 -5 -4 -4 -4 -5 -5 -6 -5 -6 -6 -5 -5 -6 -6 -6 -5 -5 -5 -5 -5 -5 -5 -4 -5 -5 -5 -4 -4 -5 -5 -5 -5 -5 -6 -6 -6 -7 -7 -7 -7
-5 -5 -5 -4 -5 -4 -5 -5 -4 -5 -5 -5 -5 -5 -5 -5 -4 -4 -5 -4 -5 -6 -6 -5 -5 -5 -5 -5 -5 -5 -5 -5 -5 -5 -5 -5 -5 -5 -5 -4 -4 -4 -5 -5 -5 -6 -6 -6 -6 -7 -7 -7 -8 -8
-5 -5 -5 -5 -5 -4 -5 -6 -5 -5 -5 -5 -5 -6 -5 -5 -5 -4 -4 -4 -5 -6 -5 -5 -5 -5 -5 -5 -5 -5 -5 -5 -5 -5 -5 -5 -5 -4 -4 -3 -4 -5 -5 -5 -6 -6 -6 -7 -7 -7 -8 -8 -8 -9
-5 -5 -5 -5 -5 -5 -5 -7 -6 -6 -6 -6 -6 -6 -6 -6 -5 -5 -5 -5 -5 -5 -4 -4 -4 -4 -5 -5 -5 -5 -5 -5 -5 -4 -5 -4 -4 -4 -3 -3 -4 -4 -5 -5 -6 -6 -7 -7 -8 -8 -9 -9 -9 -10
-5 -5 -5 -5 -5 -5 -5 -7 -6 -6 -6 -6 -6 -6 -6 -6 -5 -5 -5 -5 -5 -5 -4 -3 -3 -3 -4 -4 -5 -4 -4 -4 -4 -4 -4 -4 -4 -3 -3 -4 -4 -5 -5 -5 -6 -6 -7 -8 -9 -10 -10 -10 -10 -10
-5 -5 -5 -5 -5 -5 -6 -7 -7 -7 -7 -7 -7 -6 -6 -6 -6 -6 -5 -5 -4 -4 -3 -3 -4 -2 -3 -4 -3 -3 -3 -3 -3 -4 -4 -4 -2 -2 -3 -4 -4 -5 -5 -6 -7 -8 -9 -9 -9 -10 -10 -11 -11 -12
-6 -5 -5 -5 -6 -6 -6 -7 -7 -7 -7 -7 -7 -6 -6 -6 -6 -5 -5 -4 -4 -3 -3 -3 -3 -3 -3 -3 -3 -3 -2 -3 -3 -4 -4 -3 -3 -3 -4 -5 -5 -6 -6 -7 -8 -9 -9 -10 -10 -11 -11 -12 -12 -12
-6 -6 -5 -6 -6 -6 -6 -7 -7 -8 -7 -8 -8 -7 -6 -6 -6 -5 -5 -4 -3 -2 -2 -2 -3 -3 -3 -3 -2 -2 -2 -3 -3 -4 -3 -4 -4 -4 -4 -5 -6 -7 -7 -8 -9 -9 -10 -10 -11 -12 -12 -12 -12 -12
-6 -6 -6 -6 -6 -7 -6 -7 -7 -8 -9 -8 -8 -6 -5 -4 -5 -4 -3 -2 -1 -1 -1 -2 -2 -2 -2 -2 -2 -2 -3 -3 -4 -4 -4 -4 -4 -5 -5 -6 -7 -7 -8 -8 -9 -10 -10 -11 -12 -12 -13 -13 -13 -13
-7 -7 -7 -6 -6 -7 -6 -7 -8 -8 -8 -8 -7 -6 -5 -4 -3 -3 -3 -2 -1 -1 -1 -2 -2 -2 -2 -2 -2 -2 -3 -3 -4 -4 -4 -4 -5 -6 -6 -6 -7 -7 -8 -9 -10 -11 -11 -12 -12 -13 -13 -13 -13 -13
-8 -7 -6 -6 -7 -7 -7 -8 -8 -8 -8 -8 -6 -5 -5 -4 -3 -3 -3 -2 -2 -2 -3 -3 -2 -2 -2 -2 -2 -2 -3 -3 -4 -4 -4 -5 -5 -6 -6 -7 -8 -8 -9 -10 -11 -11 -12 -12 -13 -13 -13 -13 -13 -14
-8 -7 -7 -7 -7 -7 -7 -8 -8 -8 -8 -8 -6 -5 -4 -3 -3 -3 -3 -2 -2 -3 -3 -3 -2 -2 -2 -2 -3 -3 -4 -4 -4 -4 -5 -6 -6 -7 -7 -8 -9 -9 -10 -11 -11 -12 -12 -13 -13 -13 -13 -13 -14 -14
-8 -8 -9 -10 -8 -8 -8 -8 -9 -9 -9 -8 -6 -4 -3 -3 -3 -2 -3 -3 -3 -3 -3 -2 -2 -2 -2 -2 -3 -3 -4 -4 -4 -5 -6 -6 -7 -7 -8 -9 -10 -10 -11 -11 -12 -12 -13 -13 -13 -13 -13 -14 -14 -14
-9 -9 -10 -9 -8 -8 -9 -9 -9 -9 -8 -7 -5 -4 -4 -3 -3 -3 -3 -4 -4 -4 -3 -3 -2 -2 -2 -3 -4 -4 -5 -5 -5 -6 -6 -7 -7 -8 -9 -10 -10 -11 -11 -12 -12 -13 -13 -13 -13 -13 -13 -14 -14 -14
-10 -11 -11 -10 -9 -9 -10 -10 -10 -9 -8 -6 -5 -4 -3 -3 -3 -4 -4 -5 -4 -4 -3 -3 -3 -3 -3 -4 -5 -5 -5 -5 -6 -6 -7 -7 -7 -9 -10 -10 -11 -11 -11 -12 -12 -12 -13 -13 -13 -14 -14 -14 -15 -15
-11 -11 -10 -10 -10 -10 -10 -9 -9 -9 -8 -6 -5 -4 -4 -4 -4 -5 -5 -5 -4 -4 -3 -3 -3 -4 -5 -5 -5 -5 -6 -6 -6 -7 -7 -8 -8 -9 -10 -10 -11 -11 -11 -12 -12 -12 -13 -13 -13 -14 -14 -15 -16 -16
-12 -12 -11 -11 -10 -10 -10 -9 -9 -9 -7 -8 -6 -5 -4 -5 -5 -5 -5 -5 -5 -4 -4 -4 -4 -5 -5 -5 -5 -6 -6 -7 -7 -7 -7 -8 -9 -9 -10 -10 -10 -11 -11 -12 -12 -12 -13 -13 -13 -14 -14 -15 -16 -16
-10 -11 -11 -11 -10 -10 -10 -10 -10 -9 -8 -8 -7 -5 -6 -6 -6 -6 -6 -5 -5 -4 -4 -5 -5 -5 -5 -5 -6 -6 -7 -7 -7 -7 -7 -9 -9 -10 -10 -11 -11 -11 -11 -12 -12 -12 -13 -13 -14 -14 -15 -15 -16 -16
-11 -11 -11 -10 -10 -10 -10 -11 -10 -9 -9 -9 -7 -6 -6 -6 -6 -6 -5 -5 -5 -5 -5 -5 -5 -5 -5 -6 -6 -7 -7 -7 -7 -8 -8 -9 -9 -10 -10 -11 -11 -11 -12 -12 -12 -13 -13 -14 -14 -15 -15 -15 -16 -17
-11 -11 -10 -10 -10 -10 -10 -10 -10 -9 -8 -8 -7 -7 -7 -6 -6 -6 -5 -5 -5 -5 -5 -5 -5 -5 -6 -6 -7 -7 -7 -7 -7 -8 -8 -9 -9 -10 -10 -11 -12 -11 -12 -12 -13 -13 -14 -14 -15 -15 -15 -16 -17 -17
-10 -11 -10 -10 -10 -10 -10 -10 -9 -9 -8 -8 -8 -7 -7 -6 -6 -6 -5 -5 -5 -5 -5 -5 -6 -6 -6 -7 -7 -7 -7 -7 -7 -7 -8 -9 -10 -10 -10 -11 -11 -12 -12 -12 -12 -13 -14 -15 -15 -15 -16 -16 -17 -17
-10 -10 -10 -10 -10 -9 -9 -9 -9 -9 -8 -7 -7 -7 -6 -6 -6 -5 -5 -5 -5 -5 -5 -6 -6 -6 -7 -7 -7 -7 -7 -7 -7 -8 -9 -10 -10 -10 -11 -11 -11 -12 -12 -12 -13 -13 -14 -15 -15 -16 -16 -16 -16 -16
-10 -10 -9 -9 -9 -9 -9 -9 -9 -8 -7 -6 -6 -6 -6 -5 -5 -5 -5 -5 -5 -6 -6 -6 -6 -7 -7 -7 -7 -7 -7 -7 -8 -9 -10 -10 -11 -11 -11 -11 -12 -12 -12 -12 -13 -13 -14 -15 -15 -16 -16 -16 -16 -16
-9 -9 -9 -8 -9 -9 -9 -8 -8 -7 -7 -6 -6 -6 -6 -5 -5 -5 -5 -6 -6 -6 -6 -7 -7 -7 -7 -7 -7 -7 -7 -8 -9 -10 -11 -11 -11 -12 -12 -12 -12 -12 -13 -13 -13 -13 -14 -15 -15 -16 -16 -16 -16 -16
-9 -9 -8 -8 -9 -9 -9 -8 -8 -7 -6 -6 -6 -5 -5 -5 -6 -5 -6 -6 -6 -6 -7 -7 -7 -7 -7 -7 -7 -7 -8 -9 -10 -11 -11 -11 -12 -12 -13 -13 -13 -13 -13 -14 -14 -14 -14 -14 -15 -15 -16 -16 -15 -15
-8 -8 -9 -9 -9 -9 -8 -7 -8 -8 -8 -8 -8 -7 -7 -6 -6 -6 -6 -6 -7 -7 -7 -7 -8 -8 -7 -7 -7 -8 -9 -10 -11 -11 -11 -11 -12 -12 -13 -13 -13 -13 -14 -14 -14 -14 -14 -15 -15 -15 -15 -16 -15 -15
-9 -9 -9 -9 -9 -9 -8 -9 -9 -9 -9 -8 -7 -7 -7 -7 -7 -7 -7 -7 -7 -7 -8 -8 -8 -8 -7 -8 -8 -9 -10 -10 -11 -11 -11 -12 -12 -13 -13 -13 -14 -14 -14 -14 -15 -15 -15 -15 -15 -15 -15 -16 -16 -16
-9 -8 -8 -8 -8 -9 -9 -9 -9 -9 -9 -9 -8 -8 -7 -7 -7 -7 -7 -7 -7 -8 -8 -8 -8 -8 -8 -8 -9 -9 -10 -11 -11 -11 -12 -12 -13 -13 -13 -14 -14 -14 -15 -15 -15 -15 -15 -15 -16 -16 -16 -16 -16 -16
Height
2980 2973 2968 2963 2957 2955 2952 2949 2948 2949 2947 2948 2949 2952 2955 2959 2965 2968 2972 2975 2979 2982 2984 2989 2993 2997 3001 3005 3009 3012 3016 3017 3020 3022 3024 3026 3027 3029 3030 3030 3031 3033 3034 3035 3036 3037 3035 3031 3032 3034 3034 3032 3032 3031
2978 2972 2967 2964 2961 2958 2954 2955 2953 2950 2951 2952 2952 2954 2957 2960 2967 2971 2974 2977 2981 2984 2986 2989 2993 2998 3002 3006 3009 3011 3014 3016 3019 3021 3023 3025 3026 3027 3027 3029 3030 3031 3031 3032 3034 3032 3030 3030 3030 3030 3029 3029 3028 3028
2975 2970 2966 2963 2960 2957 2957 2955 2952 2953 2955 2956 2957 2958 2960 2965 2970 2974 2977 2979 2982 2985 2988 2990 2993 2997 3001 3004 3008 3011 3013 3016 3018 3020 3022 3023 3024 3025 3026 3026 3028 3027 3028 3029 3030 3029 3028 3029 3028 3028 3027 3026 3025 3024
2971 2968 2964 2961 2960 2958 2956 2954 2955 2956 2957 2959 2960 2961 2964 2969 2972 2975 2978 2980 2984 2986 2988 2990 2992 2995 2999 3002 3005 3009 3012 3015 3017 3019 3020 3022 3023 3023 3024 3025 3025 3026 3026 3025 3025 3025 3025 3025 3025 3024 3023 3021 3019 3017
2967 2964 2960 2960 2959 2957 2956 2955 2955 2956 2959 2960 2962 2964 2967 2970 2973 2975 2977 2980 2983 2988 2988 2989 2991 2994 2998 3001 3003 3007 3010 3013 3015 3018 3019 3020 3021 3022 3022 3022 3022 3022 3022 3022 3021 3021 3021 3021 3020 3019 3018 3016 3013 3011
2963 2959 2956 2956 2956 2956 2954 2955 2955 2956 2959 2961 2964 2965 2968 2971 2974 2976 2978 2981 2983 2985 2987 2988 2991 2993 2996 3000 3003 3005 3008 3011 3013 3015 3016 3017 3019 3021 3019 3017 3017 3017 3017 3017 3017 3017 3016 3015 3014 3012 3011 3008 3006 3004
2957 2955 2952 2952 2953 2953 2953 2953 2953 2956 2959 2962 2964 2967 2970 2972 2974 2977 2980 2982 2984 2987 2988 2990 2990 2993 2996 2998 3002 3004 3006 3008 3011 3012 3013 3014 3016 3016 3015 3014 3015 3014 3014 3013 3013 3012 3011 3009 3008 3006 3004 3002 3000 2998
2951 2950 2947 2947 2949 2951 2952 2950 2952 2956 2960 2961 2965 2968 2971 2973 2976 2979 2979 2981 2985 2987 2989 2989 2989 2992 2995 2997 3000 3002 3005 3007 3009 3010 3011 3012 3013 3013 3010 3009 3010 3010 3010 3010 3009 3008 3006 3005 3002 3000 2998 2996 2994 2990
2945 2945 2943 2943 2946 2948 2950 2949 2952 2955 2959 2963 2966 2969 2972 2974 2976 2979 2981 2982 2985 2990 2988 2988 2989 2991 2994 2997 2999 3002 3004 3006 3008 3008 3009 3011 3009 3008 3006 3007 3007 3007 3007 3006 3005 3003 3001 2999 2997 2994 2992 2988 2985 2982
2939 2938 2938 2939 2942 2945 2948 2947 2951 2954 2958 2963 2968 2970 2973 2975 2977 2980 2983 2984 2986 2986 2987 2987 2989 2989 2994 2996 2999 3003 3004 3006 3006 3007 3007 3006 3003 3003 3003 3003 3003 3003 3003 3002 3000 2997 2995 2993 2990 2987 2984 2979 2975 2971
2932 2931 2932 2934 2938 2940 2945 2946 2950 2953 2956 2961 2965 2970 2975 2977 2978 2981 2982 2984 2985 2985 2984 2985 2987 2989 2994 2997 2999 3002 3003 3004 3003 3003 3004 3001 2999 2999 3000 3000 3000 3000 2999 2997 2995 2992 2989 2987 2984 2980 2976 2972 2966 2961
2925 2925 2926 2928 2932 2936 2940 2943 2947 2951 2956 2962 2966 2972 2976 2978 2979 2979 2979 2981 2979 2981 2979 2982 2986 2988 2992 2996 2999 3001 3001 3001 3000 3001 3001 2998 2998 2998 2999 2999 2998 2996 2994 2991 2989 2986 2983 2979 2974 2970 2966 2962 2957 2954
2917 2917 2919 2922 2926 2930 2935 2940 2946 2952 2955 2961 2967 2972 2973 2975 2974 2972 2970 2972 2974 2974 2976 2980 2985 2988 2992 2996 2997 2998 2998 2998 2998 2997 2996 2996 2996 2997 2996 2995 2993 2991 2989 2986 2983 2979 2975 2971 2967 2962 2958 2953 2949 2945
2909 2911 2913 2916 2920 2925 2930 2937 2943 2949 2954 2960 2964 2966 2968 2966 2964 2964 2966 2969 2972 2973 2976 2981 2985 2988 2991 2994 2995 2996 2996 2996 2994 2994 2994 2995 2995 2994 2992 2990 2988 2985 2982 2979 2975 2972 2968 2963 2959 2955 2951 2946 2940 2935
2900 2903 2906 2909 2914 2919 2925 2932 2940 2946 2948 2954 2958 2958 2957 2959 2961 2962 2964 2967 2970 2972 2976 2981 2986 2989 2990 2992 2993 2993 2993 2992 2992 2992 2993 2993 2992 2990 2988 2985 2983 2980 2976 2972 2968 2964 2960 2955 2950 2946 2941 2936 2931 2927
2892 2894 2896 2902 2908 2912 2920 2927 2935 2942 2943 2948 2949 2949 2951 2956 2957 2960 2962 2965 2968 2971 2975 2980 2984 2987 2988 2989 2990 2990 2990 2990 2990 2991 2990 2989 2987 2985 2982 2980 2977 2973 2969 2965 2960 2955 2950 2946 2940 2934 2930 2926 2921 2916
2884 2887 2893 2896 2903 2908 2914 2923 2929 2935 2937 2937 2940 2945 2948 2952 2955 2958 2960 2963 2966 2970 2974 2978 2981 2983 2985 2986 2987 2987 2988 2988 2988 2987 2986 2984 2981 2979 2977 2974 2970 2966 2962 2957 2951 2946 2940 2935 2930 2925 2919 2916 2911 2908
2878 2886 2890 2893 2899 2904 2913 2919 2925 2927 2927 2930 2937 2942 2945 2949 2952 2955 2958 2962 2966 2969 2973 2976 2978 2979 2981 2983 2983 2985 2986 2985 2984 2983 2981 2979 2976 2974 2971 2967 2963 2958 2954 2949 2943 2936 2931 2926 2920 2915 2909 2904 2900 2897
2876 2881 2886 2891 2900 2906 2910 2916 2920 2920 2923 2929 2935 2939 2944 2947 2949 2952 2956 2961 2966 2969 2973 2975 2976 2977 2979 2981 2981 2982 2982 2981 2980 2978 2976 2974 2971 2968 2964 2960 2955 2950 2945 2939 2933 2927 2922 2916 2910 2904 2898 2893 2889 2885
2874 2880 2886 2892 2898 2902 2909 2913 2915 2919 2923 2928 2934 2938 2942 2945 2947 2950 2955 2961 2965 2968 2970 2972 2974 2976 2977 2978 2979 2978 2977 2977 2976 2974 2971 2968 2966 2962 2957 2952 2948 2942 2936 2931 2925 2919 2913 2908 2902 2896 2890 2884 2878 2874
2870 2877 2886 2889 2895 2900 2904 2906 2912 2917 2921 2926 2931 2935 2938 2941 2944 2949 2955 2959 2963 2965 2968 2970 2972 2974 2975 2976 2975 2974 2973 2973 2972 2970 2968 2965 2961 2956 2951 2945 2940 2934 2927 2922 2916 2911 2905 2898 2891 2885 2879 2874 2869 2866
2863 2870 2876 2886 2892 2895 2900 2903 2910 2917 2921 2923 2930 2932 2935 2939 2944 2950 2954 2957 2961 2964 2966 2968 2970 2971 2972 2971 2971 2971 2970 2968 2966 2964 2962 2959 2954 2950 2944 2937 2932 2928 2922 2916 2908 2901 2895 2888 2881 2875 2869 2864 2861 2857
2856 2865 2873 2881 2885 2889 2894 2900 2908 2914 2917 2920 2927 2930 2934 2938 2943 2948 2951 2954 2958 2961 2964 2966 2967 2968 2968 2968 2968 2967 2965 2963 2961 2959 2955 2950 2944 2939 2933 2928 2923 2919 2914 2907 2900 2893 2887 2881 2874 2868 2863 2858 2853 2851
2858 2862 2866 2873 2878 2883 2889 2895 2902 2907 2912 2916 2922 2926 2932 2936 2941 2945 2948 2952 2956 2958 2961 2963 2964 2965 2965 2964 2964 2962 2960 2958 2955 2952 2948 2943 2939 2934 2929 2923 2918 2913 2907 2901 2895 2888 2882 2875 2869 2864 2858 2853 2848 2845
2851 2859 2863 2863 2867 2875 2883 2891 2895 2901 2905 2912 2918 2922 2927 2933 2937 2942 2945 2949 2952 2955 2958 2960 2961 2961 2961 2960 2959 2958 2957 2954 2951 2946 2941 2936 2933 2929 2924 2918 2911 2907 2902 2897 2891 2885 2879 2872 2867 2861 2856 2851 2847 2844
2843 2845 2851 2853 2862 2872 2878 2886 2890 2896 2905 2911 2915 2920 2926 2932 2937 2938 2942 2946 2949 2952 2954 2956 2957 2957 2957 2956 2956 2954 2952 2949 2945 2940 2936 2931 2927 2924 2919 2914 2909 2903 2898 2892 2887 2881 2875 2870 2865 2860 2856 2852 2848 2846
2834 2837 2841 2848 2856 2867 2877 2884 2890 2897 2902 2907 2910 2918 2925 2929 2931 2934 2938 2943 2946 2949 2951 2952 2953 2953 2952 2952 2951 2949 2946 2943 2939 2934 2929 2926 2922 2918 2913 2908 2903 2899 2894 2889 2884 2878 2873 2868 2864 2860 2857 2854 2851 2848
2828 2833 2839 2849 2859 2869 2875 2885 2891 2894 2898 2902 2909 2914 2919 2922 2926 2932 2936 2939 2943 2945 2947 2948 2948 2948 2948 2948 2946 2944 2941 2937 2932 2928 2924 2922 2917 2912 2908 2903 2899 2894 2890 2885 2881 2875 2871 2867 2863 2860 2857 2855 2852 2850
2828 2834 2843 2852 2862 2868 2876 2883 2886 2889 2895 2901 2905 2909 2914 2920 2926 2930 2933 2936 2938 2941 2943 2943 2943 2944 2944 2943 2941 2939 2936 2932 2928 2923 2920 2916 2912 2909 2905 2900 2896 2891 2887 2882 2878 2874 2870 2866 2863 2860 2857 2855 2853 2851
2829 2835 2844 2854 2860 2867 2874 2881 2886 2891 2896 2900 2905 2910 2916 2919 2924 2928 2931 2934 2936 2937 2938 2939 2939 2939 2939 2938 2937 2935 2931 2927 2923 2921 2917 2914 2910 2906 2902 2898 2894 2889 2885 2881 2877 2873 2869 2865 2862 2859 2857 2855 2853 2852
2830 2839 2846 2853 2860 2868 2874 2879 2884 2889 2894 2898 2903 2910 2914 2919 2922 2924 2927 2930 2931 2932 2934 2935 2934 2934 2934 2933 2931 2928 2925 2922 2919 2916 2913 2910 2907 2903 2899 2895 2891 2888 2884 2880 2876 2872 2869 2865 2862 2859 2856 2854 2852 2850
2832 2838 2846 2853 2859 2866 2871 2875 2880 2886 2892 2898 2902 2906 2910 2914 2917 2921 2923 2925 2927 2928 2929 2930 2930 2930 2929 2927 2925 2923 2920 2918 2915 2913 2910 2907 2903 2900 2896 2893 2889 2886 2883 2879 2875 2871 2868 2864 2861 2858 2855 2852 2850 2848
2835 2843 2849 2853 2857 2861 2867 2873 2878 2884 2889 2894 2898 2903 2906 2911 2914 2916 2919 2921 2923 2924 2924 2925 2925 2925 2924 2923 2921 2919 2916 2914 2912 2909 2906 2903 2900 2897 2894 2891 2887 2885 2881 2878 2874 2870 2867 2864 2861 2858 2854 2851 2849 2846
Wind_Speed
38 40 36 31 28 25 18 20 24 20 10 10 12 12 13 15 20 19 18 17 14 9 22 25 25 26 20 20 19 20 18 19 19 14 9 5 4 6 5 4 3 7 6 6 8 5 7 6 11 13 9 10 13 12
35 36 32 28 25 19 14 13 16 13 9 8 8 8 13 20 23 16 14 14 14 12 16 24 22 23 22 19 19 17 16 17 15 14 10 8 5 5 8 4 9 6 9 4 7 5 8 7 8 13 15 16 16 17
32 31 28 24 23 16 6 9 17 10 6 3 5 12 21 26 19 17 13 14 14 12 10 20 23 21 21 20 21 17 20 9 18 16 10 8 5 7 7 10 10 10 12 13 11 12 15 14 14 15 17 19 22 22
31 28 26 22 18 12 4 6 10 3 4 2 7 12 19 16 16 16 15 13 13 11 7 17 21 20 19 20 21 23 17 15 13 14 15 12 8 7 9 10 10 12 12 13 17 18 18 19 19 21 22 24 25 24
29 26 25 20 14 10 4 1 5 2 2 4 8 11 19 16 16 16 14 15 15 12 6 14 18 20 21 20 19 20 18 18 15 14 13 14 15 13 12 13 14 15 16 17 18 18 18 19 21 23 24 26 26 27
24 26 22 17 11 9 7 5 1 2 4 5 10 11 21 18 16 18 15 16 16 14 3 16 17 19 21 21 19 18 18 17 17 17 16 16 14 12 7 9 13 15 16 18 20 20 20 21 21 22 23 25 25 27
23 22 19 15 10 10 10 6 4 3 6 9 14 17 16 17 15 16 13 15 16 9 8 5 12 18 18 19 18 17 17 17 17 16 15 13 12 14 17 17 12 11 13 14 16 18 19 20 21 22 23 25 26 27
23 20 16 13 8 11 13 8 6 7 11 9 13 22 19 14 13 13 11 17 16 13 8 3 7 18 19 18 18 16 16 14 14 13 11 13 12 13 11 13 13 14 14 14 16 17 18 19 21 24 25 26 28 30
21 18 15 13 10 12 16 14 11 13 15 17 20 19 17 15 15 13 16 19 17 10 4 5 9 16 20 18 17 15 13 12 9 14 13 9 14 11 11 10 10 12 13 15 16 18 20 21 23 25 26 28 33 34
21 19 16 15 14 14 21 18 18 18 16 24 24 17 19 16 16 19 18 16 9 7 7 5 14 13 21 19 16 12 9 9 4 11 10 15 22 19 16 14 14 14 14 14 16 18 20 22 25 27 30 33 36 38
23 20 19 17 18 17 25 24 22 21 23 28 28 22 20 20 22 15 10 11 9 5 8 10 17 14 21 19 15 9 5 5 5 7 9 6 6 5 7 8 7 10 13 15 17 20 23 26 29 32 34 34 33 31
23 21 21 20 20 22 28 30 28 24 27 31 25 21 21 21 8 7 10 9 8 9 8 14 19 19 22 17 11 8 4 5 4 3 6 4 3 3 2 6 11 14 16 18 21 24 28 31 34 35 34 33 33 32
23 22 22 23 23 27 33 35 30 25 31 30 24 23 17 14 12 10 13 11 9 10 14 21 21 21 20 12 7 5 5 5 3 4 4 4 3 5 11 15 17 18 20 22 25 28 31 33 32 32 33 34 34 34
23 22 23 26 26 30 37 39 35 34 36 27 21 19 15 11 10 10 15 18 11 10 21 20 22 13 16 12 5 4 5 3 3 3 4 4 8 14 17 19 20 21 24 25 27 29 31 32 33 33 34 35 35 34
24 24 26 28 27 33 40 43 40 39 42 21 16 13 19 13 9 15 14 18 14 16 23 24 19 12 15 6 6 4 3 3 4 3 4 12 17 19 19 20 22 22 24 26 29 32 32 34 36 35 34 34 35 35
25 27 29 28 28 34 44 45 43 44 41 19 14 13 20 22 15 13 15 20 17 24 28 23 14 8 8 5 5 5 3 4 3 8 14 18 19 19 21 22 23 24 27 30 33 35 37 38 37 37 37 37 38 37
30 28 28 27 33 33 43 48 49 52 27 18 23 18 20 23 19 16 20 24 24 31 29 16 10 8 6 5 6 5 5 7 11 14 16 17 18 20 22 22 24 27 30 34 37 38 39 38 37 37 39 39 39 37
32 29 30 35 38 35 42 49 52 25 25 27 28 20 22 22 20 20 23 25 31 31 25 14 10 10 6 5 7 7 8 10 12 14 15 17 19 21 23 25 28 32 35 37 39 38 37 38 40 41 42 42 41 39
31 32 38 45 45 43 47 54 53 20 25 29 30 23 26 21 21 22 25 31 33 26 18 13 6 8 7 9 9 8 8 10 12 14 16 18 20 23 26 29 32 36 38 41 40 37 38 39 40 42 43 42 42 40
33 35 42 44 46 45 44 29 46 20 28 34 32 27 23 22 24 27 33 33 26 21 15 11 7 5 7 6 6 7 9 10 12 14 17 20 23 26 29 32 36 39 43 40 36 37 39 40 40 42 42 42 41 38
37 41 51 44 40 44 39 23 44 20 28 35 33 23 24 26 30 38 36 30 24 21 15 10 6 5 4 5 6 8 10 12 13 14 16 20 25 28 32 36 39 41 38 36 37 38 40 41 42 41 40 38 35 33
39 44 45 53 46 44 35 28 33 26 28 38 32 23 27 34 40 37 32 28 22 17 12 7 4 4 4 5 8 11 13 14 15 17 20 24 28 32 35 38 35 32 34 37 39 39 39 39 38 36 35 33 31 29
41 41 45 45 35 33 24 32 31 30 25 38 34 28 37 43 40 36 27 28 21 15 10 5 3 4 5 9 11 14 15 17 19 21 25 30 34 36 35 33 34 36 37 36 36 36 35 34 35 35 33 31 29 26
41 53 45 34 31 25 34 35 33 33 32 38 36 33 43 43 39 34 26 28 19 13 7 4 4 6 8 11 13 15 16 19 22 26 30 32 32 30 29 31 34 35 33 33 32 32 34 34 33 32 31 28 25 21
44 36 32 28 31 28 38 38 37 41 43 42 36 38 43 41 37 32 28 25 18 11 7 6 7 9 10 12 14 15 17 20 24 29 31 30 28 26 27 31 33 32 30 28 27 29 30 29 28 28 26 23 19 14
29 13 26 30 38 34 35 35 41 40 42 34 30 34 42 32 28 22 29 22 15 11 9 9 10 11 12 13 14 15 18 23 27 29 29 27 25 25 28 28 27 27 27 27 27 27 26 25 24 23 21 18 15 12
22 17 34 39 37 41 39 35 34 38 38 26 32 36 31 20 16 17 22 19 18 15 13 12 12 12 12 13 14 17 21 25 28 28 26 24 25 27 27 26 26 25 25 24 25 26 24 21 21 19 17 15 13 10
17 26 42 38 38 41 37 33 33 37 37 28 34 32 22 22 22 26 25 21 16 14 13 12 12 11 12 13 15 18 22 25 26 25 24 24 26 27 26 25 25 25 25 24 23 24 23 20 19 18 15 13 11 8
25 33 39 37 38 41 36 36 32 35 38 31 35 34 27 28 25 22 18 18 19 16 13 12 11 12 12 13 15 19 22 23 23 22 22 25 26 25 24 24 23 22 23 23 23 22 22 19 16 16 14 11 8 6
37 42 42 42 42 39 37 34 31 35 34 33 34 32 30 25 23 21 17 17 14 13 11 10 12 12 11 13 16 20 21 21 20 19 20 21 22 21 21 19 19 20 20 20 20 20 21 20 17 15 12 9 7 6
43 42 42 42 40 38 35 31 31 32 32 30 29 29 30 26 21 21 19 15 13 12 12 11 11 10 11 14 18 19 19 20 19 19 20 20 19 19 18 18 18 19 19 19 19 18 18 18 18 16 14 12 10 9
44 43 43 41 42 41 38 36 36 33 31 29 27 25 23 23 24 22 19 16 14 13 12 11 10 11 12 15 17 18 18 18 17 18 19 18 18 17 16 17 18 18 18 18 18 18 17 18 17 16 16 15 13 12
44 43 42 43 44 45 40 36 34 35 31 26 26 27 25 24 24 21 18 16 14 13 11 10 10 11 13 15 16 17 17 16 16 17 17 17 16 14 15 16 17 18 18 18 18 18 18 18 17 17 17 16 15 14
Wind_Direction
335 335 340 345 349 358 10 18 1 21 7 35 108 146 169 186 193 166 184 180 180 163 184 186 187 186 193 190 193 188 179 185 186 186 197 186 193 201 215 203 221 209 206 212 215 244 273 253 239 235 254 277 298 292
332 333 336 340 345 349 21 29 13 22 27 17 98 123 171 169 163 176 177 183 178 175 188 187 188 195 199 201 198 194 194 200 197 196 201 206 202 205 222 228 221 221 216 228 222 244 263 276 266 256 262 268 272 276
330 330 333 334 339 344 7 24 21 35 42 50 141 160 159 160 174 183 183 178 182 181 166 191 194 195 200 202 202 207 209 210 217 218 221 219 213 226 222 237 243 241 241 242 255 263 263 266 269 267 266 270 275 278
325 324 327 326 332 329 320 30 16 46 55 139 151 156 170 175 175 178 188 177 182 194 195 195 196 197 195 192 197 204 209 217 217 217 221 229 230 237 236 244 247 250 256 256 262 271 275 272 275 276 280 281 283 283
321 319 321 315 320 306 255 94 27 34 257 169 157 164 173 174 175 177 183 180 185 187 217 203 192 191 191 190 196 198 204 207 211 215 223 234 241 246 255 260 257 252 255 258 266 273 275 281 282 281 281 283 284 288
318 313 312 305 306 283 231 202 90 174 244 219 183 178 176 177 178 185 188 192 185 187 254 180 190 193 193 193 194 194 203 207 213 225 235 241 246 239 254 254 259 254 256 258 264 271 278 283 284 284 285 284 285 286
311 306 297 292 293 263 226 191 158 203 220 199 183 167 170 178 184 193 194 190 183 187 163 185 186 194 192 194 200 204 210 213 220 230 233 238 237 231 246 255 266 264 271 268 268 276 282 284 285 286 286 287 287 285
302 298 287 274 271 254 222 160 166 195 198 186 179 183 177 183 198 199 191 180 180 160 164 194 199 185 189 193 195 196 200 201 211 216 227 227 232 236 252 260 260 263 267 273 280 284 286 287 288 287 287 287 287 289
292 286 270 251 250 242 218 174 181 186 185 176 163 166 171 184 191 185 169 168 162 169 195 205 182 184 184 186 184 184 188 197 214 223 228 232 234 232 247 259 269 274 280 285 285 287 288 289 289 290 293 294 295 298
283 277 252 233 236 231 216 185 191 178 178 177 168 170 168 178 178 170 163 164 179 203 217 230 198 185 176 172 173 172 186 200 230 230 237 245 250 254 264 274 282 290 294 296 297 297 296 297 296 295 296 298 301 303
274 262 238 227 228 222 210 187 189 181 178 181 174 175 175 165 152 152 171 183 204 225 226 230 198 199 183 175 177 179 185 211 233 229 212 248 267 264 255 264 279 295 298 298 299 297 296 297 297 298 302 303 303 304
268 249 230 223 220 216 206 191 191 186 178 179 174 180 172 165 175 186 185 202 210 216 215 191 183 179 176 176 177 202 216 228 250 214 211 249 263 219 253 309 313 310 307 305 303 301 302 302 302 305 306 306 305 308
261 235 224 217 217 213 207 194 190 178 174 173 171 177 174 193 207 201 192 188 200 201 190 177 173 167 169 173 187 203 220 236 231 222 228 230 208 299 318 321 318 314 310 307 304 304 304 304 305 305 305 305 308 306
247 227 220 213 217 212 209 198 186 180 165 172 174 181 195 206 218 207 199 194 198 197 170 169 167 166 172 180 184 214 222 227 227 227 218 229 302 314 319 319 316 313 311 309 307 307 305 305 305 305 306 307 304 303
235 224 215 215 219 209 207 200 184 190 173 176 183 200 214 202 200 201 204 193 194 180 171 166 173 176 176 178 199 218 217 219 223 228 259 305 311 315 316 313 311 312 310 310 310 308 307 307 309 311 308 307 307 305
224 219 214 216 206 195 202 196 190 194 176 180 201 210 209 209 213 208 201 191 186 181 169 169 175 177 186 196 201 209 220 215 241 290 304 307 308 311 313 314 313 313 312 313 312 311 312 313 311 308 309 309 308 308
222 219 212 212 189 189 190 185 192 186 184 195 199 198 199 204 212 210 199 190 180 174 170 168 177 179 171 198 213 229 236 271 293 298 301 304 310 314 315 313 313 315 316 318 317 316 314 313 311 310 308 308 306 306
217 203 198 193 194 182 182 193 186 190 202 194 186 188 193 206 211 207 193 186 177 175 176 176 183 179 175 219 241 248 269 286 296 300 305 312 315 314 312 313 316 318 319 320 319 317 313 312 310 309 307 305 304 303
203 198 191 194 193 185 191 189 187 199 199 187 184 190 199 213 203 192 186 179 176 175 179 179 184 204 227 254 258 257 279 295 302 309 314 315 316 314 314 317 318 319 320 322 320 316 313 311 310 308 307 306 304 304
192 190 191 196 189 193 186 189 195 194 193 189 187 193 210 200 189 180 174 173 173 174 174 186 205 241 246 241 248 278 295 305 313 317 316 317 317 315 316 318 319 318 319 320 318 315 312 310 307 306 305 304 304 305
180 179 189 183 185 190 192 198 199 191 187 188 186 195 196 186 180 173 173 174 176 180 185 194 210 228 228 255 289 305 311 316 318 321 319 313 314 317 318 318 318 320 320 320 317 315 314 312 311 310 309 307 305 305
179 187 189 200 197 197 195 199 193 195 189 188 193 200 188 178 175 175 175 177 180 183 190 189 201 220 251 298 315 317 319 318 322 323 320 320 320 320 320 320 322 322 320 320 319 319 319 318 318 318 317 314 311 308
180 185 188 191 189 188 191 188 179 185 182 185 190 192 183 177 179 179 181 183 184 187 186 188 214 254 299 314 315 315 318 322 324 324 325 325 326 327 327 326 323 323 324 325 325 325 325 325 327 326 325 324 320 317
184 188 174 184 186 186 179 174 177 176 178 182 190 190 185 181 181 183 187 188 189 188 194 218 254 281 302 308 313 318 321 322 322 324 325 328 329 327 326 321 321 326 330 329 330 330 330 333 332 332 331 330 328 326
170 184 193 191 184 179 173 174 179 180 184 186 188 189 185 183 185 188 194 190 193 198 218 254 265 284 298 308 313 315 316 319 323 324 327 328 329 327 326 325 326 329 333 334 335 333 334 336 337 340 342 344 346 348
179 177 187 188 180 180 175 175 184 181 184 179 183 183 185 183 187 202 197 197 204 224 250 259 267 284 297 305 307 309 315 321 324 325 328 328 327 327 328 329 330 331 336 338 340 341 341 341 345 350 354 356 359 1
186 170 176 177 180 184 177 181 183 183 183 183 180 179 177 188 192 187 194 207 229 238 248 255 268 282 294 301 303 311 320 323 324 326 328 329 329 331 332 333 335 337 340 343 344 347 349 347 349 352 354 357 2 2
177 177 178 171 174 175 172 174 180 186 185 181 181 180 186 198 198 205 214 220 225 236 238 251 268 283 290 294 305 316 321 323 325 326 329 330 332 333 334 336 338 339 341 347 352 352 353 351 351 353 351 349 352 359
169 171 171 170 174 178 176 179 183 186 185 188 182 181 184 197 203 211 226 223 221 221 239 255 269 277 283 297 312 319 322 325 326 331 332 329 330 333 335 337 340 342 343 346 351 355 358 355 351 352 350 352 355 353
164 162 166 169 172 174 181 183 187 185 188 193 194 195 201 207 216 220 212 208 217 233 246 256 264 273 288 304 312 318 326 328 329 329 328 327 329 332 336 340 344 346 347 350 352 355 359 1 356 350 349 344 338 327
161 163 165 167 171 172 174 175 179 188 194 197 202 208 208 209 204 197 202 215 230 241 245 253 264 278 293 305 315 325 329 330 328 327 326 329 332 336 340 346 349 350 352 353 355 357 360 3 3 355 342 336 328 314
162 165 166 167 168 174 173 175 175 173 176 182 188 193 203 211 210 210 213 225 234 238 246 254 265 281 297 310 321 326 327 327 326 324 326 331 334 338 343 347 350 353 352 354 356 357 0 1 360 357 357 351 337 323
164 168 173 175 174 176 184 188 190 188 189 189 196 200 200 200 200 208 218 225 229 234 242 253 268 287 302 315 321 324 326 324 323 324 327 332 333 336 344 351 355 354 354 357 357 358 360 1 360 357 356 352 346 340